Dewpoint
6 6 6 6 5 8 9 8 9 8 6 7 6 5 5 4 3 4 3 3 2 1 1 1 -2 -3 -2 -1 -2 -3 -3 -5
7 6 6 8 9 8 9 9 8 8 8 7 5 5 3 3 2 1 3 3 2 1 -1 -2 -1 -2 -2 -3 -3 -5 -6 -8
9 10 11 11 10 8 8 9 9 7 6 6 6 3 1 1 1 2 2 1 -0 -2 -1 -1 -1 -2 -3 -4 -4 -6 -10 -13
9 8 7 7 6 6 4 4 4 4 4 2 0 0 0 0 -0 -1 0 0 -1 -0 -1 -1 -2 -3 -3 -7 -11 -10 -11 -9
4 4 4 3 2 2 2 0 -0 0 0 -0 0 -0 0 1 1 1 0 0 0 -1 -1 -2 0 -0 -2 -7 -7 -6 -6 -4
2 2 2 1 1 1 2 2 3 2 2 2 2 2 2 1 0 1 1 -0 -1 -0 1 1 -4 -5 -6 -4 -7 -11 -8 -4
3 2 2 2 2 2 3 3 3 2 2 2 2 2 2 1 1 0 0 0 -1 -2 -5 -4 -4 -4 -4 -11 -15 -13 -11 -9
3 3 3 3 3 3 3 2 2 2 2 2 2 1 -0 -3 -3 -4 -5 -3 -4 -5 -3 -3 -3 -8 -15 -15 -12 -12 -11 -11
3 3 3 3 2 2 2 1 1 0 1 1 -1 -4 -6 -7 -4 -3 -3 -3 -2 -3 -3 -3 -12 -13 -15 -14 -16 -14 -13 -12
3 2 2 2 1 1 -1 -3 -4 -3 -4 -5 -6 -6 -6 -3 -2 -3 -3 -2 -2 -1 -2 -6 -8 -9 -11 -12 -13 -12 -12 -12
2 2 1 1 -0 -2 -6 -7 -6 -6 -8 -8 -7 -4 -1 -1 -2 -3 -2 -2 -3 -3 -3 -4 -5 -7 -11 -12 -13 -13 -13 -13
1 1 1 -1 -4 -6 -5 -5 -5 -6 -7 -9 -9 -9 -6 -11 -12 -5 -2 -3 -3 -3 -3 -4 -5 -10 -12 -12 -14 -14 -12 -11
1 0 -3 -4 -5 -4 -4 -5 -6 -7 -8 -9 -10 -11 -14 -17 -13 -3 -3 -4 -5 -4 -4 -3 -9 -12 -12 -13 -12 -12 -11 -10
-0 -3 -6 -5 -4 -5 -6 -7 -8 -9 -10 -11 -11 -13 -16 -15 -13 -12 -12 -10 -5 -3 -3 -5 -11 -12 -10 -11 -11 -10 -10 -9
-3 -5 -5 -4 -6 -7 -8 -9 -9 -10 -11 -12 -13 -14 -12 -11 -11 -10 -12 -5 -2 -5 -7 -9 -11 -8 -10 -11 -10 -9 -9 -8
-6 -7 -6 -6 -7 -8 -9 -10 -11 -12 -12 -12 -12 -12 -10 -10 -9 -10 -8 -3 -3 -4 -6 -10 -7 -9 -10 -9 -9 -9 -10 -12
-6 -7 -7 -7 -8 -10 -11 -12 -12 -12 -12 -12 -11 -10 -9 -9 -8 -10 -7 -5 -4 -5 -6 -8 -9 -9 -9 -10 -10 -12 -12 -12
-7 -7 -8 -10 -11 -12 -12 -12 -11 -11 -11 -10 -10 -9 -8 -7 -8 -8 -7 -7 -6 -6 -6 -8 -9 -9 -10 -11 -12 -14 -14 -15
-7 -8 -10 -11 -12 -12 -11 -11 -11 -11 -11 -9 -8 -8 -7 -7 -8 -7 -6 -6 -7 -7 -8 -9 -9 -10 -11 -13 -15 -17 -17 -16
Wind_Speed
12 16 16 26 37 34 25 19 9 7 8 10 12 10 4 4 3 4 7 8 12 18 21 25 28 31 31 30 27 26 28 31
13 12 13 20 25 26 16 10 15 8 6 9 7 3 1 3 3 5 13 23 25 25 26 26 32 31 26 27 28 30 31 33
18 15 12 13 13 8 5 10 5 4 6 6 5 4 4 9 14 16 18 21 25 20 26 28 25 21 22 25 29 32 33 30
22 18 13 11 12 10 10 9 4 1 4 4 6 9 10 16 21 23 25 23 20 23 20 19 19 22 24 29 28 28 29 29
21 20 20 18 16 13 9 7 5 5 5 8 12 11 16 18 20 20 19 20 19 16 15 18 30 31 29 27 28 29 31 29
21 21 18 16 14 10 7 4 2 1 7 12 14 13 16 16 13 13 15 16 18 21 28 34 25 26 28 29 31 30 25 25
22 18 16 14 11 8 7 2 3 7 11 12 13 14 13 10 11 15 21 28 32 32 21 23 26 26 26 28 23 22 22 21
21 18 13 11 9 7 5 1 6 10 10 10 10 11 14 18 20 22 24 27 26 25 22 23 21 25 22 20 18 19 19 19
18 16 12 10 10 6 3 6 9 11 11 12 14 17 21 22 23 26 28 29 29 24 22 21 19 21 18 17 19 19 20 17
16 15 11 8 5 4 8 11 11 10 12 15 18 22 23 22 23 27 29 29 24 19 20 19 22 19 18 16 17 18 18 20
17 13 9 4 3 8 11 10 11 13 15 18 18 19 21 22 25 28 29 25 21 18 21 15 16 19 17 18 19 19 23 24
15 10 3 4 8 9 7 6 7 12 14 17 21 20 19 24 26 28 23 18 21 31 27 19 15 19 18 18 21 23 23 24
11 5 1 5 6 3 4 8 12 13 17 22 21 23 28 28 26 23 22 26 28 31 28 24 16 17 17 20 22 24 26 24
7 2 1 1 1 3 6 10 13 16 17 20 26 31 27 24 24 30 29 27 27 25 24 20 13 15 19 22 24 26 24 26
2 3 1 2 3 6 8 12 12 15 21 27 31 28 27 26 28 33 29 24 23 18 16 13 12 20 21 22 22 24 26 28
2 2 2 3 6 8 12 11 16 21 26 29 27 27 28 29 31 33 24 19 19 19 17 14 18 19 20 19 24 26 30 31
2 4 7 8 9 11 11 16 20 24 28 26 25 27 28 28 31 29 21 19 21 19 17 16 15 16 19 24 27 28 28 29
4 7 8 9 9 10 14 18 23 22 23 22 22 22 27 28 32 22 19 15 12 8 12 15 13 21 23 25 27 26 27 28
7 8 8 8 9 11 16 21 22 21 22 19 22 26 28 30 26 17 15 14 14 12 10 13 20 20 24 25 26 25 27 28
Wind_Direction
215 227 228 219 219 217 190 188 198 207 291 243 231 220 225 197 211 223 253 270 291 293 298 304 314 316 311 309 309 306 311 314
161 175 197 203 205 216 217 212 181 281 146 192 189 224 96 299 277 298 297 297 300 302 311 319 320 313 309 310 310 312 312 314
106 115 134 162 150 126 139 165 163 159 171 199 281 332 345 299 295 301 301 304 301 302 306 302 303 296 305 312 315 315 315 318
105 105 106 97 111 112 101 99 119 106 347 17 349 319 324 316 314 311 305 302 295 294 298 298 302 311 313 322 319 318 319 317
117 114 111 108 111 113 110 95 70 40 7 335 331 321 322 317 305 295 291 289 290 296 294 315 321 313 313 313 314 316 314 309
119 118 107 107 96 98 97 95 69 345 329 331 323 301 297 289 277 276 280 290 299 296 306 307 319 324 320 318 313 311 312 307
128 117 112 126 127 144 156 161 341 339 332 321 304 285 280 280 281 291 302 307 311 312 319 316 309 309 307 308 311 315 316 316
136 131 143 140 149 177 180 24 352 344 333 319 316 329 330 325 327 332 329 324 314 313 309 299 300 310 316 319 325 331 325 319
140 137 142 135 132 127 59 4 344 334 331 329 333 331 336 341 337 331 328 322 317 304 295 293 311 324 324 330 335 330 325 319
146 140 136 128 107 44 354 343 344 351 351 345 345 342 342 333 329 327 324 323 307 296 308 322 324 330 328 327 325 319 317 315
136 133 124 105 9 335 336 342 348 350 352 344 336 336 331 328 323 322 314 309 296 284 288 304 309 313 316 320 324 326 320 319
143 138 121 333 338 340 343 350 348 339 333 335 330 324 322 323 323 317 296 281 276 296 292 292 312 293 308 313 321 323 320 320
145 127 99 339 311 354 353 335 329 324 326 326 326 333 338 335 337 329 308 309 303 306 299 292 276 284 306 315 321 318 314 312
139 154 204 192 217 308 309 314 317 320 320 325 329 332 336 343 340 338 329 319 310 304 302 294 280 300 315 310 315 308 301 298
157 159 167 219 257 283 301 313 314 320 324 327 333 339 340 335 334 338 331 316 304 297 295 283 291 302 300 302 300 301 297 299
224 182 251 264 265 291 307 308 317 321 327 334 337 340 339 330 331 336 329 312 294 297 274 262 289 294 296 299 301 302 303 305
268 288 298 277 275 292 302 315 321 328 333 334 333 332 327 327 334 336 328 323 309 270 277 289 294 291 305 305 307 308 310 310
248 263 257 270 284 296 308 319 328 329 325 324 323 323 326 330 334 328 322 321 330 291 294 289 293 309 305 311 312 315 315 313
244 242 268 282 294 300 314 323 325 320 321 313 321 322 323 328 329 318 316 312 308 297 287 299 304 304 315 319 320 322 322 321
Height
1536 1537 1541 1543 1544 1548 1552 1555 1558 1559 1560 1558 1564 1562 1561 1561 1560 1561 1562 1560 1559 1558 1554 1552 1550 1546 1543 1540 1538 1536 1534 1530
1534 1536 1539 1541 1544 1549 1552 1556 1558 1557 1557 1560 1562 1561 1562 1562 1561 1561 1561 1558 1555 1553 1551 1548 1545 1542 1540 1537 1534 1531 1529 1526
1539 1540 1542 1545 1549 1552 1553 1555 1558 1560 1561 1562 1563 1563 1562 1561 1559 1558 1557 1555 1552 1549 1547 1545 1541 1538 1537 1534 1531 1526 1525 1522
1546 1546 1548 1550 1553 1555 1557 1559 1561 1561 1561 1562 1563 1563 1562 1560 1558 1556 1552 1549 1547 1546 1543 1539 1536 1533 1530 1529 1526 1523 1520 1519
1550 1552 1552 1555 1557 1559 1561 1561 1562 1562 1563 1563 1563 1561 1559 1557 1553 1550 1547 1545 1543 1541 1537 1535 1536 1531 1528 1523 1522 1519 1516 1514
1551 1555 1555 1557 1559 1561 1561 1561 1561 1561 1561 1559 1558 1556 1554 1551 1550 1548 1545 1543 1540 1536 1535 1533 1529 1527 1525 1521 1517 1514 1511 1510
1553 1556 1557 1557 1557 1559 1560 1559 1559 1559 1558 1557 1555 1554 1552 1550 1548 1546 1543 1541 1536 1534 1529 1527 1525 1523 1520 1516 1513 1510 1507 1505
1553 1554 1557 1557 1558 1560 1560 1559 1558 1557 1556 1554 1553 1552 1550 1549 1546 1542 1539 1536 1532 1530 1526 1523 1521 1518 1514 1511 1508 1506 1504 1502
1553 1553 1555 1556 1558 1560 1559 1557 1556 1555 1554 1553 1551 1549 1546 1544 1541 1538 1534 1531 1527 1524 1521 1518 1516 1513 1510 1508 1506 1503 1501 1498
1552 1553 1555 1557 1557 1557 1556 1554 1553 1553 1552 1550 1548 1545 1543 1540 1537 1533 1529 1525 1523 1522 1520 1519 1515 1510 1508 1503 1502 1500 1497 1495
1552 1554 1557 1557 1556 1555 1554 1552 1551 1551 1549 1547 1545 1543 1540 1536 1532 1528 1525 1521 1519 1515 1512 1510 1510 1507 1504 1501 1498 1494 1494 1491
1553 1554 1554 1556 1554 1553 1552 1550 1549 1548 1546 1544 1541 1538 1535 1531 1527 1523 1519 1517 1514 1511 1507 1506 1503 1503 1499 1497 1493 1491 1489 1485
1550 1550 1552 1553 1553 1552 1549 1548 1548 1546 1543 1541 1538 1534 1530 1525 1521 1517 1516 1513 1509 1505 1501 1499 1497 1498 1494 1492 1489 1487 1484 1480
1549 1550 1550 1550 1550 1549 1548 1547 1544 1542 1540 1537 1534 1530 1525 1521 1518 1515 1511 1506 1503 1500 1498 1495 1495 1494 1491 1488 1485 1482 1479 1475
1548 1547 1546 1547 1547 1546 1544 1543 1540 1538 1535 1532 1528 1525 1521 1517 1513 1509 1504 1501 1498 1496 1494 1492 1490 1489 1487 1484 1481 1478 1474 1470
1545 1544 1544 1542 1543 1542 1541 1539 1536 1533 1530 1526 1523 1520 1516 1512 1508 1504 1499 1496 1493 1491 1488 1487 1486 1484 1483 1479 1476 1472 1467 1462
1542 1541 1540 1540 1540 1539 1537 1535 1532 1529 1526 1522 1519 1516 1512 1507 1502 1497 1493 1491 1488 1485 1485 1484 1482 1480 1478 1475 1470 1465 1460 1455
1539 1539 1538 1538 1537 1536 1534 1531 1528 1525 1521 1518 1514 1511 1508 1503 1499 1493 1490 1486 1483 1482 1481 1480 1478 1476 1473 1469 1464 1459 1454 1449
1536 1535 1535 1534 1534 1532 1530 1527 1524 1520 1517 1514 1511 1507 1503 1498 1494 1490 1487 1484 1482 1480 1478 1477 1475 1472 1468 1463 1457 1453 1448 1443